• In Latvia
  • List of Countries
  • For 7 days
  • Water Temperature
  • Satellite Maps
  • Weather Map
  • Weather Widgets
  • user-avatar
    Login

    Hourly Weather Hartford

    Today, 19 September, Wednesday

    Time Temperature Precipitation Wind Pressure Humidity
    00:00 +15°C° 0.2 mm 5 mps 751 mmHg 87%
    01:00 +14°C° 0 mm 5 mps 751 mmHg 88%
    02:00 +14°C° 0 mm 5 mps 751 mmHg 89%
    03:00 +13°C° 0 mm 4 mps 751 mmHg 90%
    04:00 +13°C° 0 mm 5 mps 751 mmHg 90%
    05:00 +13°C° 0 mm 5 mps 751 mmHg 90%
    06:00 +13°C° 0 mm 5 mps 751 mmHg 91%
    07:00 +14°C° 0 mm 7 mps 751 mmHg 87%
    08:00 +15°C° 0 mm 8 mps 750 mmHg 83%
    09:00 +16°C° 0 mm 9 mps 750 mmHg 80%
    10:00 +16°C° 0.2 mm 10 mps 750 mmHg 79%
    11:00 +17°C° 0.2 mm 10 mps 749 mmHg 78%
    12:00 +17°C° 0.2 mm 11 mps 749 mmHg 77%
    13:00 +17°C° 0.3 mm 10 mps 750 mmHg 75%
    14:00 +16°C° 0.3 mm 9 mps 750 mmHg 73%
    15:00 +15°C° 0.3 mm 9 mps 751 mmHg 71%
    16:00 +13°C° 0 mm 8 mps 751 mmHg 70%
    17:00 +14°C° 0 mm 7 mps 752 mmHg 69%
    18:00 +13°C° 0 mm 6 mps 753 mmHg 67%
    19:00 +11°C° 0 mm 6 mps 753 mmHg 67%
    20:00 +11°C° 0 mm 6 mps 754 mmHg 67%
    21:00 +10°C° 0 mm 6 mps 754 mmHg 67%
    22:00 +10°C° 0.1 mm 6 mps 754 mmHg 70%
    23:00 +10°C° 0.1 mm 5 mps 754 mmHg 73%

    Tomorrow, 20 September, Thursday

    Time Temperature Precipitation Wind Pressure Humidity
    00:00 +10°C° 0.1 mm 5 mps 754 mmHg 76%
    01:00 +10°C° 1 mm 5 mps 754 mmHg 81%
    02:00 +10°C° 1 mm 4 mps 754 mmHg 85%
    03:00 +10°C° 1 mm 3 mps 754 mmHg 90%
    04:00 +10°C° 0.6 mm 3 mps 754 mmHg 90%
    05:00 +10°C° 0.6 mm 2 mps 753 mmHg 90%
    06:00 +10°C° 0.6 mm 2 mps 753 mmHg 90%
    07:00 +12°C° 0 mm 2 mps 753 mmHg 87%
    08:00 +12°C° 0 mm 2 mps 753 mmHg 84%
    09:00 +13°C° 0 mm 2 mps 753 mmHg 80%
    10:00 +13°C° 0.5 mm 2 mps 753 mmHg 80%
    11:00 +13°C° 0.5 mm 2 mps 753 mmHg 79%
    12:00 +13°C° 0.5 mm 1 mps 753 mmHg 78%
    13:00 +13°C° 1.1 mm 1 mps 752 mmHg 81%
    14:00 +13°C° 1.1 mm 1 mps 752 mmHg 84%
    15:00 +12°C° 1.1 mm 1 mps 751 mmHg 87%
    16:00 +12°C° 2.6 mm 2 mps 750 mmHg 89%
    17:00 +11°C° 2.6 mm 3 mps 749 mmHg 91%
    18:00 +11°C° 2.6 mm 3 mps 747 mmHg 93%
    19:00 +11°C° 2.4 mm 4 mps 746 mmHg 93%
    20:00 +12°C° 2.4 mm 4 mps 745 mmHg 93%
    21:00 +12°C° 2.4 mm 4 mps 743 mmHg 93%
    22:00 +13°C° 0.7 mm 5 mps 742 mmHg 93%
    23:00 +14°C° 0.7 mm 7 mps 741 mmHg 92%

    Day after tomorrow, 21 September, Friday

    Time Temperature Precipitation Wind Pressure Humidity
    00:00 +15°C° 0.7 mm 8 mps 740 mmHg 92%
    01:00 +12°C° 0.1 mm 8 mps 741 mmHg 89%
    02:00 +10°C° 0.1 mm 9 mps 742 mmHg 86%
    03:00 +7°C° 0.1 mm 9 mps 743 mmHg 83%
    04:00 +7°C° 0.3 mm 9 mps 744 mmHg 83%
    05:00 +7°C° 0.3 mm 8 mps 745 mmHg 83%
    06:00 +8°C° 0.3 mm 7 mps 747 mmHg 83%
    07:00 +7°C° 0.2 mm 8 mps 747 mmHg 79%
    08:00 +9°C° 0.2 mm 8 mps 748 mmHg 74%
    09:00 +10°C° 0.2 mm 9 mps 748 mmHg 70%
    10:00 +10°C° 0.2 mm 9 mps 749 mmHg 67%
    11:00 +11°C° 0.2 mm 10 mps 749 mmHg 65%
    12:00 +11°C° 0.2 mm 11 mps 749 mmHg 62%
    13:00 +11°C° 0.6 mm 11 mps 750 mmHg 65%
    14:00 +11°C° 0.6 mm 11 mps 750 mmHg 67%
    15:00 +11°C° 0.6 mm 10 mps 751 mmHg 70%
    16:00 +10°C° 0.2 mm 9 mps 752 mmHg 71%
    17:00 +10°C° 0.2 mm 8 mps 753 mmHg 73%
    18:00 +10°C° 0.2 mm 7 mps 754 mmHg 74%
    19:00 +9°C° 0 mm 7 mps 755 mmHg 75%
    20:00 +9°C° 0 mm 6 mps 756 mmHg 75%
    21:00 +9°C° 0 mm 6 mps 756 mmHg 75%
    22:00 +8°C° 0 mm 6 mps 757 mmHg 76%
    23:00 +8°C° 0 mm 6 mps 757 mmHg 77%

    22 September, Saturday

    Time Temperature Precipitation Wind Pressure Humidity
    00:00 +8°C° 0 mm 5 mps 758 mmHg 78%
    01:00 +8°C° 0 mm 5 mps 758 mmHg 79%
    02:00 +7°C° 0 mm 5 mps 759 mmHg 80%
    03:00 +7°C° 0 mm 5 mps 759 mmHg 80%
    04:00 +7°C° 0.1 mm 5 mps 759 mmHg 81%
    05:00 +7°C° 0.1 mm 4 mps 760 mmHg 81%
    06:00 +7°C° 0.1 mm 4 mps 760 mmHg 82%
    07:00 +8°C° 0 mm 4 mps 760 mmHg 78%
    08:00 +10°C° 0 mm 4 mps 761 mmHg 73%
    09:00 +10°C° 0 mm 5 mps 761 mmHg 69%
    10:00 +12°C° 0 mm 4 mps 761 mmHg 65%
    11:00 +13°C° 0 mm 4 mps 761 mmHg 62%
    12:00 +13°C° 0 mm 4 mps 761 mmHg 59%
    13:00 +14°C° 0 mm 3 mps 761 mmHg 58%
    14:00 +14°C° 0 mm 3 mps 760 mmHg 57%
    15:00 +15°C° 0 mm 2 mps 760 mmHg 57%
    16:00 +14°C° 0.1 mm 2 mps 759 mmHg 62%
    17:00 +13°C° 0.1 mm 2 mps 759 mmHg 67%
    18:00 +12°C° 0.1 mm 1 mps 759 mmHg 72%
    19:00 +11°C° 1.1 mm 3 mps 757 mmHg 78%
    20:00 +10°C° 1.1 mm 4 mps 756 mmHg 84%
    21:00 +9°C° 1.1 mm 5 mps 755 mmHg 90%
    22:00 +9°C° 5.3 mm 7 mps 752 mmHg 91%
    23:00 +9°C° 5.3 mm 8 mps 749 mmHg 91%

    23 September, Sunday

    Time Temperature Precipitation Wind Pressure Humidity
    00:00 +7°C° 5.3 mm 9 mps 747 mmHg 92%
    01:00 +10°C° 8.6 mm 9 mps 744 mmHg 92%
    02:00 +11°C° 8.6 mm 9 mps 742 mmHg 93%
    03:00 +13°C° 8.6 mm 9 mps 739 mmHg 93%
    04:00 +13°C° 3.6 mm 8 mps 736 mmHg 93%
    05:00 +13°C° 3.6 mm 8 mps 733 mmHg 92%
    06:00 +14°C° 3.6 mm 7 mps 730 mmHg 91%
    07:00 +14°C° 0.8 mm 6 mps 729 mmHg 91%
    08:00 +13°C° 0.8 mm 6 mps 728 mmHg 91%
    09:00 +13°C° 0.8 mm 5 mps 727 mmHg 91%
    10:00 +11°C° 0.9 mm 9 mps 730 mmHg 88%
    11:00 +9°C° 0.9 mm 13 mps 732 mmHg 84%
    12:00 +7°C° 0.9 mm 17 mps 734 mmHg 81%
    13:00 +7°C° 1.2 mm 16 mps 738 mmHg 80%
    14:00 +6°C° 1.2 mm 15 mps 742 mmHg 78%
    15:00 +6°C° 1.2 mm 15 mps 746 mmHg 77%
    16:00 +6°C° 0.1 mm 14 mps 749 mmHg 73%
    17:00 +7°C° 0.1 mm 13 mps 752 mmHg 69%
    18:00 +7°C° 0.1 mm 11 mps 755 mmHg 66%
    19:00 +7°C° 0 mm 11 mps 756 mmHg 64%
    20:00 +6°C° 0 mm 10 mps 758 mmHg 62%
    21:00 +6°C° 0 mm 9 mps 760 mmHg 61%
    22:00 +6°C° 0 mm 8 mps 762 mmHg 61%
    23:00 +5°C° 0 mm 8 mps 763 mmHg 61%

    24 September, Monday

    Time Temperature Precipitation Wind Pressure Humidity
    00:00 +5°C° 0 mm 7 mps 764 mmHg 61%
    01:00 +5°C° 0 mm 7 mps 765 mmHg 62%
    02:00 +4°C° 0 mm 7 mps 766 mmHg 64%
    03:00 +4°C° 0 mm 6 mps 767 mmHg 65%
    04:00 +4°C° 0 mm 6 mps 768 mmHg 66%
    05:00 +3°C° 0 mm 5 mps 768 mmHg 67%
    06:00 +3°C° 0 mm 5 mps 769 mmHg 68%
    07:00 +5°C° 0 mm 5 mps 770 mmHg 66%
    08:00 +7°C° 0 mm 5 mps 770 mmHg 64%
    09:00 +8°C° 0 mm 5 mps 771 mmHg 62%
    10:00 +9°C° 0 mm 5 mps 771 mmHg 58%
    11:00 +10°C° 0 mm 5 mps 772 mmHg 54%
    12:00 +12°C° 0 mm 4 mps 772 mmHg 51%
    13:00 +12°C° 0 mm 4 mps 772 mmHg 53%
    14:00 +12°C° 0 mm 4 mps 772 mmHg 54%
    15:00 +12°C° 0 mm 4 mps 772 mmHg 56%
    16:00 +11°C° 0 mm 3 mps 772 mmHg 62%
    17:00 +10°C° 0 mm 3 mps 772 mmHg 69%
    18:00 +9°C° 0 mm 2 mps 772 mmHg 75%
    19:00 +9°C° 0 mm 2 mps 772 mmHg 77%
    20:00 +8°C° 0 mm 2 mps 772 mmHg 79%
    21:00 +8°C° 0 mm 2 mps 773 mmHg 80%
    22:00 +7°C° 0 mm 2 mps 772 mmHg 81%
    23:00 +7°C° 0 mm 2 mps 772 mmHg 82%
    Show more